TimeEDT,TemperatureF,Dew PointF,Humidity,Sea Level PressureIn,VisibilityMPH,Wind Direction,Wind SpeedMPH,Gust SpeedMPH,PrecipitationIn,Events,Conditions,WindDirDegrees,DateUTC
12:53 AM,48.0,30.9,52,30.33,10.0,NNE,6.9,-,N/A,,Clear,30,2013-10-29 04:53:00
1:53 AM,46.0,30.9,56,30.34,10.0,NNE,4.6,-,N/A,,Clear,20,2013-10-29 05:53:00
2:53 AM,44.1,33.1,65,30.35,10.0,NNE,4.6,-,N/A,,Clear,20,2013-10-29 06:53:00
3:53 AM,45.0,35.1,68,30.35,10.0,NNE,4.6,-,N/A,,Overcast,30,2013-10-29 07:53:00
4:53 AM,46.0,36.0,68,30.36,10.0,NE,5.8,-,N/A,,Overcast,40,2013-10-29 08:53:00
5:53 AM,46.0,35.1,66,30.39,10.0,NE,6.9,-,N/A,,Mostly Cloudy,50,2013-10-29 09:53:00
6:53 AM,43.0,33.1,68,30.38,10.0,NNE,5.8,-,N/A,,Clear,30,2013-10-29 10:53:00
7:53 AM,42.1,33.1,70,30.40,10.0,NNE,5.8,-,N/A,,Mostly Cloudy,20,2013-10-29 11:53:00
8:53 AM,46.0,33.1,61,30.41,10.0,NE,8.1,-,N/A,,Clear,40,2013-10-29 12:53:00
9:53 AM,48.9,33.1,54,30.42,10.0,NE,9.2,-,N/A,,Clear,50,2013-10-29 13:53:00
10:53 AM,50.0,32.0,50,30.42,10.0,NNE,11.5,-,N/A,,Partly Cloudy,30,2013-10-29 14:53:00
11:53 AM,52.0,32.0,47,30.41,10.0,ENE,5.8,-,N/A,,Clear,60,2013-10-29 15:53:00
12:53 PM,53.1,32.0,45,30.40,10.0,North,3.5,-,N/A,,Clear,350,2013-10-29 16:53:00
1:53 PM,54.0,30.9,41,30.38,10.0,Variable,5.8,-,N/A,,Clear,0,2013-10-29 17:53:00
2:53 PM,54.0,30.0,40,30.37,10.0,NNE,4.6,-,N/A,,Scattered Clouds,20,2013-10-29 18:53:00
3:53 PM,54.0,28.9,38,30.38,10.0,North,4.6,-,N/A,,Clear,10,2013-10-29 19:53:00
4:53 PM,53.1,28.9,40,30.38,10.0,North,5.8,-,N/A,,Clear,350,2013-10-29 20:53:00
5:53 PM,50.0,28.9,44,30.38,10.0,North,4.6,-,N/A,,Clear,10,2013-10-29 21:53:00
6:53 PM,46.9,30.0,52,30.38,10.0,East,4.6,-,N/A,,Clear,100,2013-10-29 22:53:00
7:53 PM,46.0,30.0,54,30.39,10.0,Calm,Calm,-,N/A,,Clear,0,2013-10-29 23:53:00
8:53 PM,42.1,30.9,65,30.39,10.0,Calm,Calm,-,N/A,,Clear,0,2013-10-30 00:53:00
9:53 PM,42.1,32.0,67,30.39,10.0,NNE,3.5,-,N/A,,Clear,20,2013-10-30 01:53:00
10:53 PM,42.1,33.1,70,30.38,10.0,NNE,3.5,-,N/A,,Clear,20,2013-10-30 02:53:00
11:53 PM,42.1,32.0,67,30.37,10.0,Calm,Calm,-,N/A,,Clear,0,2013-10-30 03:53:00